[[{"header":{"parameterUnit":"m.s-1","parameterCategory":2,"la1":30.2992,"la2":30.254,"lo1":-89.0895,"lo2":-89.0443,"dy":0.0025,"dx":0.0025,"nx":19,"ny":19,"refTime":"2026-03-23T21:00:00:Z","depth":"0","parameterNumber":2,"parameterNumberName":"U-component_of_CURRENTS"},"data":[0,0,0,-0.284,-0.2842,-0.2912,-0.2912,-0.2953,-0.2953,0,0,0,0,0,0,0,0,0,0,0,-0.2798,-0.2799,-0.284,-0.2842,-0.2911,-0.2912,-0.2953,-0.2953,0,0,0,0,0,0,0,0,0,0,0,-0.2798,-0.2799,-0.2799,-0.2843,-0.2911,-0.2912,-0.2952,-0.291,0,0,0,0,0,0,0,0,0,0,-0.2847,-0.2809,-0.2799,-0.2799,-0.2843,-0.2911,-0.2912,-0.2908,-0.2912,-0.2911,0,-0.2917,0,-0.2948,-0.2956,-0.2956,0,0,0,-0.2832,-0.2805,-0.2839,-0.2799,-0.2844,-0.2911,-0.2877,-0.2911,-0.2915,-0.2916,-0.2918,-0.2921,-0.2949,-0.2956,-0.2956,-0.3024,-0.3024,0,0,-0.2828,-0.2798,-0.2836,-0.2842,-0.2856,-0.2875,-0.288,-0.2914,-0.2906,-0.2919,-0.2923,-0.2949,-0.2956,-0.2956,-0.3024,-0.3024,0,0,0,-0.2824,-0.2795,-0.2828,-0.2839,-0.2863,-0.2878,-0.2883,-0.2904,-0.292,-0.2923,-0.295,-0.2956,-0.2957,-0.3023,-0.3024,-0.306,0,0,0,-0.2821,-0.2794,-0.2826,-0.2806,-0.2862,-0.289,-0.2872,-0.2917,-0.2923,-0.295,-0.2956,-0.2957,-0.3023,-0.3023,-0.3058,-0.3057,0,0,0,-0.2796,-0.2791,-0.2801,-0.2805,-0.2844,-0.289,-0.2907,-0.2919,-0.2939,-0.2956,-0.2957,-0.3022,-0.3023,-0.3056,-0.3054,-0.3064,0,0,0,-0.2761,-0.2783,-0.2799,-0.284,-0.2843,-0.2929,-0.2907,-0.2955,-0.2973,-0.2956,-0.3023,-0.3024,-0.3055,-0.3053,-0.3063,-0.2878,-0.287,0,0,-0.2777,-0.2783,-0.2815,-0.2833,-0.2912,-0.2919,-0.2993,-0.2998,-0.2987,-0.3005,-0.3007,-0.3059,-0.3054,-0.3064,-0.2941,-0.293,0,0,0,-0.2815,-0.2824,-0.2855,-0.2901,-0.2967,-0.3009,-0.3034,-0.3042,-0.3055,-0.3005,-0.3071,-0.3066,-0.3071,-0.2958,-0.295,-0.286,-0.3029,-0.3029,-0.3028,-0.2755,-0.2822,-0.287,-0.2948,-0.3003,-0.3074,-0.31,-0.311,-0.3105,-0.3116,-0.3106,-0.3149,-0.3029,-0.3021,-0.2932,-0.3126,-0.3126,-0.3126,-0.3126,-0.276,-0.2778,-0.2867,-0.2934,-0.3008,-0.3067,-0.3147,-0.3151,-0.3176,-0.3161,-0.3164,-0.3013,-0.3014,-0.2922,-0.3129,-0.3128,-0.3128,-0.3128,-0.3127,-0.2692,-0.271,-0.2768,-0.2861,-0.2944,-0.3044,-0.31,-0.3164,-0.3184,-0.3199,-0.3061,-0.3057,-0.2966,-0.3202,-0.3202,-0.3202,-0.3202,-0.3202,-0.3202,-0.258,-0.2647,-0.2667,-0.2787,-0.283,-0.293,-0.3071,-0.3099,-0.3096,-0.3072,-0.3071,-0.2955,-0.3171,-0.3155,-0.3203,-0.3203,-0.3203,-0.3203,-0.3202,-0.2463,-0.2498,-0.2523,-0.2562,-0.2684,-0.2701,-0.2897,-0.2909,-0.2965,-0.291,-0.2793,-0.2998,-0.2962,-0.2965,-0.2944,-0.2934,-0.2934,-0.2934,-0.2934,-0.2342,-0.238,-0.2361,-0.2391,-0.2465,-0.2579,-0.2512,-0.2569,-0.2596,-0.255,-0.2638,-0.257,-0.2585,-0.2525,-0.2538,-0.2508,-0.2389,-0.2388,-0.2388,-0.2228,-0.226,-0.2186,-0.2259,-0.234,-0.2386,-0.2239,-0.2191,-0.2273,-0.2366,-0.2557,-0.258,-0.2488,-0.2518,-0.2429,-0.2455,-0.2408,0,0]},{"header":{"parameterUnit":"m.s-1","parameterCategory":2,"la1":30.2992,"la2":30.254,"lo1":-89.0895,"lo2":-89.0443,"dy":0.0025,"dx":0.0025,"nx":19,"ny":19,"refTime":"2026-03-23T21:00:00:Z","depth":"0","parameterNumber":3,"parameterNumberName":"V-component_of_CURRENTS"},"data":[0,0,0,-0.0292,-0.029,-0.0179,-0.0179,-0.0008,-0.0006,0,0,0,0,0,0,0,0,0,0,0,-0.0333,-0.0333,-0.0292,-0.029,-0.0179,-0.0178,-0.0008,-0.0006,0,0,0,0,0,0,0,0,0,0,0,-0.0333,-0.0333,-0.0333,-0.029,-0.0179,-0.0178,-0.0008,-0.0094,0,0,0,0,0,0,0,0,0,0,-0.0204,-0.026,-0.0333,-0.0333,-0.029,-0.018,-0.0178,-0.0098,-0.0089,-0.0056,0,-0.0054,0,-0.0033,0.0004,0.0005,0,0,0,-0.027,-0.0269,-0.0235,-0.0333,-0.0289,-0.018,-0.0224,-0.0093,-0.0082,-0.0043,-0.0052,-0.0045,-0.003,0.0005,0.0006,0.0101,0.0101,0,0,-0.0276,-0.0309,-0.0243,-0.0229,-0.0279,-0.0227,-0.022,-0.0087,-0.0085,-0.0051,-0.0041,-0.0027,0.0006,0.0007,0.0101,0.0101,0,0,0,-0.0307,-0.0314,-0.0284,-0.0236,-0.0222,-0.0225,-0.0217,-0.0091,-0.008,-0.0039,-0.0025,0.0007,0.0009,0.0101,0.0101,-0.0012,0,0,0,-0.031,-0.0333,-0.0287,-0.0305,-0.0225,-0.0161,-0.0224,-0.0089,-0.0074,-0.0026,0.0007,0.001,0.0101,0.0101,-0.0008,-0.0064,0,0,0,-0.0335,-0.0336,-0.0328,-0.0307,-0.0267,-0.0163,-0.0143,-0.0085,-0.0066,0.0005,0.0011,0.0102,0.0101,-0.0005,-0.0058,-0.0014,0,0,0,-0.0364,-0.0395,-0.033,-0.0358,-0.0269,-0.0233,-0.0144,-0.0101,-0.0051,0.0008,0.0101,0.0101,-0.0004,-0.0054,-0.0012,0.0074,0.0072,0,0,-0.0427,-0.0404,-0.0421,-0.036,-0.0368,-0.0245,-0.023,-0.0124,-0.0038,0.0064,0.0066,-0.0009,-0.0057,-0.0014,0.0061,0.0058,0,0,0,-0.0456,-0.0474,-0.0463,-0.0449,-0.0387,-0.0324,-0.0212,-0.0146,-0.005,-0.0012,0.0018,-0.0008,0.0023,0.008,0.0078,0.0311,0.01,0.01,0.01,-0.0576,-0.0546,-0.058,-0.0534,-0.0496,-0.0371,-0.0307,-0.0189,-0.0107,-0.0077,-0.008,-0.01,-0.0042,-0.0042,0.0195,-0.0053,-0.0053,-0.0053,-0.0054,-0.0692,-0.0719,-0.0669,-0.0692,-0.0601,-0.0561,-0.0393,-0.0313,-0.0191,-0.0142,-0.0105,-0.0019,-0.0051,0.0203,-0.0061,-0.0059,-0.0059,-0.0058,-0.0057,-0.0779,-0.0793,-0.0793,-0.0812,-0.0784,-0.0671,-0.0603,-0.0463,-0.0298,-0.0272,-0.0118,-0.0114,0.0099,-0.0228,-0.0228,-0.0228,-0.0229,-0.0229,-0.0229,-0.087,-0.0873,-0.093,-0.0933,-0.0941,-0.0897,-0.0714,-0.0597,-0.0362,-0.0222,-0.0219,0.0132,-0.0152,-0.0157,-0.023,-0.023,-0.023,-0.0229,-0.0229,-0.0982,-0.0974,-0.1069,-0.1099,-0.1114,-0.1081,-0.0901,-0.0582,-0.0413,-0.027,0.0169,-0.0151,-0.0087,-0.0083,-0.0084,-0.0133,-0.0133,-0.0133,-0.0133,-0.105,-0.1057,-0.1176,-0.124,-0.1267,-0.1165,-0.0957,-0.059,-0.0033,0.0261,0.0338,0.0409,0.0395,0.0492,0.0483,0.0497,0.0595,0.0597,0.0598,-0.1114,-0.1147,-0.1237,-0.1296,-0.1332,-0.1232,-0.1004,-0.0543,0.0274,0.0649,0.0644,0.0613,0.0737,0.0696,0.0863,0.0832,0.0858,0,0]}],[{"header":{"parameterUnit":"m.s-1","parameterCategory":2,"la1":30.2992,"la2":30.254,"lo1":-89.0895,"lo2":-89.0443,"dy":0.0025,"dx":0.0025,"nx":19,"ny":19,"refTime":"2026-03-23T21:00:00:Z","depth":"2","parameterNumber":2,"parameterNumberName":"U-component_of_CURRENTS"},"data":[0,0,0,-0.2524,-0.2526,-0.2611,-0.2611,-0.2663,-0.2663,0,0,0,0,0,0,0,0,0,0,0,-0.248,-0.248,-0.2523,-0.2526,-0.2611,-0.2611,-0.2663,-0.2663,0,0,0,0,0,0,0,0,0,0,0,-0.248,-0.248,-0.2481,-0.2526,-0.2611,-0.2611,-0.2663,-0.261,0,0,0,0,0,0,0,0,0,0,-0.2534,-0.2498,-0.248,-0.2481,-0.2527,-0.2611,-0.2611,-0.2608,-0.2614,-0.261,0,-0.2623,0,-0.2654,-0.2666,-0.2666,0,0,0,-0.2517,-0.2494,-0.2528,-0.2481,-0.2528,-0.2611,-0.257,-0.2612,-0.2617,-0.2617,-0.2624,-0.2627,-0.2655,-0.2666,-0.2667,-0.2739,-0.2739,0,0,-0.2512,-0.2485,-0.2524,-0.2532,-0.2548,-0.2567,-0.2573,-0.2616,-0.2613,-0.2624,-0.2629,-0.2655,-0.2667,-0.2667,-0.2739,-0.2739,0,0,0,-0.2505,-0.2481,-0.2515,-0.2529,-0.2554,-0.257,-0.2576,-0.2611,-0.2625,-0.263,-0.2656,-0.2667,-0.2667,-0.2738,-0.2739,-0.2778,0,0,0,-0.2501,-0.2478,-0.2513,-0.2496,-0.2554,-0.2591,-0.257,-0.2622,-0.2629,-0.2656,-0.2667,-0.2668,-0.2738,-0.2738,-0.2776,-0.2777,0,0,0,-0.2476,-0.2476,-0.2488,-0.2495,-0.2539,-0.2591,-0.2608,-0.2624,-0.2645,-0.2666,-0.2668,-0.2737,-0.2738,-0.2774,-0.2774,-0.2782,0,0,0,-0.2443,-0.2469,-0.2486,-0.2531,-0.2538,-0.2624,-0.2608,-0.2661,-0.2684,-0.2667,-0.2738,-0.2739,-0.2774,-0.2772,-0.2781,-0.259,-0.2582,0,0,-0.2463,-0.2471,-0.2503,-0.2521,-0.26,-0.2612,-0.2688,-0.2704,-0.2697,-0.2716,-0.2719,-0.2777,-0.2774,-0.2782,-0.2654,-0.2643,0,0,0,-0.2502,-0.2515,-0.2545,-0.2593,-0.2657,-0.2703,-0.2735,-0.2746,-0.277,-0.2718,-0.2788,-0.2785,-0.2789,-0.2671,-0.2664,-0.2744,-0.2744,-0.2744,-0.2744,-0.246,-0.2519,-0.2568,-0.264,-0.2697,-0.277,-0.2801,-0.2818,-0.2816,-0.2832,-0.2827,-0.287,-0.2747,-0.2738,-0.2846,-0.2846,-0.2846,-0.2846,-0.2846,-0.247,-0.2488,-0.2571,-0.2638,-0.2711,-0.2772,-0.2853,-0.2863,-0.2895,-0.2882,-0.2884,-0.273,-0.2731,-0.285,-0.2849,-0.2849,-0.2848,-0.2848,-0.2848,-0.2415,-0.243,-0.2488,-0.2577,-0.2662,-0.2759,-0.2812,-0.2882,-0.2908,-0.2924,-0.278,-0.2777,-0.2874,-0.2927,-0.2927,-0.2927,-0.2927,-0.2927,-0.2927,-0.2315,-0.2378,-0.24,-0.2515,-0.2556,-0.2652,-0.279,-0.2816,-0.2814,-0.2795,-0.2793,-0.2897,-0.2894,-0.2878,-0.2928,-0.2928,-0.2928,-0.2928,-0.2928,-0.2211,-0.2245,-0.2269,-0.2306,-0.2415,-0.2411,-0.2602,-0.2607,-0.2669,-0.2614,-0.2712,-0.2717,-0.2678,-0.2681,-0.266,-0.265,-0.265,-0.265,-0.265,-0.2102,-0.2138,-0.2117,-0.2139,-0.2192,-0.2285,-0.2185,-0.2212,-0.2328,-0.2337,-0.2351,-0.2285,-0.2302,-0.224,-0.2254,-0.2223,-0.21,-0.2099,-0.2098,-0.1998,-0.2025,-0.1953,-0.2012,-0.2065,-0.2079,-0.1888,-0.175,-0.1844,-0.208,-0.2294,-0.2606,-0.2543,-0.2557,-0.2489,-0.25,-0.2462,0,0]},{"header":{"parameterUnit":"m.s-1","parameterCategory":2,"la1":30.2992,"la2":30.254,"lo1":-89.0895,"lo2":-89.0443,"dy":0.0025,"dx":0.0025,"nx":19,"ny":19,"refTime":"2026-03-23T21:00:00:Z","depth":"2","parameterNumber":3,"parameterNumberName":"V-component_of_CURRENTS"},"data":[0,0,0,-0.034,-0.0338,-0.0231,-0.0231,-0.0073,-0.0072,0,0,0,0,0,0,0,0,0,0,0,-0.0378,-0.0378,-0.034,-0.0338,-0.0231,-0.023,-0.0073,-0.0072,0,0,0,0,0,0,0,0,0,0,0,-0.0378,-0.0378,-0.0378,-0.0337,-0.0231,-0.023,-0.0073,-0.0155,0,0,0,0,0,0,0,0,0,0,-0.0259,-0.0311,-0.0378,-0.0378,-0.0337,-0.0232,-0.023,-0.0159,-0.015,-0.0121,0,-0.0118,0,-0.0098,-0.0062,-0.0062,0,0,0,-0.0319,-0.0319,-0.0287,-0.0378,-0.0336,-0.0232,-0.0274,-0.0154,-0.0143,-0.0109,-0.0115,-0.0109,-0.0095,-0.0061,-0.0061,0.0031,0.0031,0,0,-0.0325,-0.0356,-0.0294,-0.0281,-0.0325,-0.0278,-0.0271,-0.0147,-0.0146,-0.0115,-0.0106,-0.0092,-0.0061,-0.0059,0.0031,0.0031,0,0,0,-0.0354,-0.0361,-0.0331,-0.0287,-0.0273,-0.0275,-0.0267,-0.0151,-0.0141,-0.0104,-0.0091,-0.006,-0.0058,0.0031,0.0031,-0.0074,0,0,0,-0.0357,-0.0379,-0.0334,-0.0351,-0.0277,-0.0216,-0.0274,-0.0149,-0.0135,-0.0091,-0.006,-0.0057,0.0031,0.0031,-0.0071,-0.0123,0,0,0,-0.038,-0.0381,-0.0373,-0.0353,-0.0315,-0.0217,-0.0199,-0.0145,-0.0127,-0.0062,-0.0056,0.0031,0.0031,-0.0069,-0.0117,-0.0089,0,0,0,-0.0408,-0.0434,-0.0374,-0.0397,-0.0316,-0.0281,-0.02,-0.0159,-0.0113,-0.0059,0.0031,0.0031,-0.0068,-0.0114,-0.0087,-0.0031,-0.0036,0,0,-0.0463,-0.0441,-0.0455,-0.04,-0.0406,-0.0293,-0.0277,-0.018,-0.0099,-0.0004,-0.0002,-0.0072,-0.0117,-0.0088,-0.0036,-0.0041,0,0,0,-0.0487,-0.0502,-0.0492,-0.0478,-0.0421,-0.0364,-0.0259,-0.0198,-0.0107,-0.0074,-0.0044,-0.0069,-0.0047,-0.0008,-0.0012,0.003,0.003,0.003,0.0031,-0.0594,-0.0566,-0.0597,-0.0555,-0.052,-0.0406,-0.0347,-0.0237,-0.0159,-0.013,-0.0134,-0.0158,-0.0119,-0.0121,-0.0105,-0.0106,-0.0106,-0.0107,-0.0107,-0.0697,-0.0723,-0.0678,-0.0699,-0.0618,-0.0581,-0.0426,-0.0351,-0.0239,-0.0189,-0.0162,-0.0097,-0.0132,-0.0115,-0.0113,-0.0112,-0.0111,-0.0111,-0.011,-0.0777,-0.079,-0.0791,-0.0811,-0.0788,-0.0685,-0.0631,-0.0496,-0.0341,-0.0319,-0.02,-0.0197,-0.0212,-0.0285,-0.0285,-0.0285,-0.0285,-0.0285,-0.0286,-0.086,-0.0864,-0.092,-0.0925,-0.0937,-0.0902,-0.074,-0.0639,-0.0431,-0.03,-0.0297,-0.0217,-0.0211,-0.0218,-0.0287,-0.0287,-0.0287,-0.0287,-0.0287,-0.0964,-0.0959,-0.1051,-0.1083,-0.1107,-0.1088,-0.0932,-0.0665,-0.0515,-0.0394,-0.0252,-0.0252,-0.0198,-0.0192,-0.0196,-0.0256,-0.0256,-0.0256,-0.0256,-0.1028,-0.1036,-0.1154,-0.1223,-0.126,-0.1174,-0.1011,-0.0704,-0.0397,-0.0241,-0.0242,-0.0214,-0.0214,-0.0158,-0.0154,-0.0156,-0.0205,-0.0205,-0.0205,-0.1091,-0.1123,-0.1214,-0.1277,-0.1325,-0.1246,-0.1057,-0.0664,-0.0261,-0.0207,-0.0272,-0.0245,-0.0203,-0.0205,-0.0114,-0.0109,-0.011,0,0]}],[{"header":{"parameterUnit":"m.s-1","parameterCategory":2,"la1":30.2992,"la2":30.254,"lo1":-89.0895,"lo2":-89.0443,"dy":0.0025,"dx":0.0025,"nx":19,"ny":19,"refTime":"2026-03-23T21:00:00:Z","depth":"4","parameterNumber":2,"parameterNumberName":"U-component_of_CURRENTS"},"data":[0,0,0,-0.1806,-0.181,-0.1993,-0.1994,-0.2123,-0.2124,0,0,0,0,0,0,0,0,0,0,0,-0.1744,-0.1745,-0.1806,-0.1811,-0.1993,-0.1994,-0.2123,-0.2124,0,0,0,0,0,0,0,0,0,0,0,-0.1743,-0.1745,-0.1746,-0.1811,-0.1993,-0.1994,-0.2122,-0.201,0,0,0,0,0,0,0,0,0,0,-0.1846,-0.1806,-0.1744,-0.1746,-0.1812,-0.1992,-0.1994,-0.2006,-0.2017,-0.201,0,-0.2048,0,-0.2088,-0.213,-0.213,0,0,0,-0.181,-0.1797,-0.1844,-0.1747,-0.1814,-0.1992,-0.191,-0.2013,-0.2026,-0.2025,-0.2051,-0.2056,-0.209,-0.213,-0.2131,-0.2245,-0.2246,0,0,-0.18,-0.1776,-0.1836,-0.1852,-0.1872,-0.1905,-0.1916,-0.2022,-0.2038,-0.2051,-0.206,-0.2092,-0.2131,-0.2132,-0.2245,-0.2245,0,0,0,-0.1771,-0.1769,-0.1816,-0.1846,-0.1887,-0.191,-0.1923,-0.2034,-0.2049,-0.2062,-0.2093,-0.2132,-0.2133,-0.2244,-0.2245,-0.2288,0,0,0,-0.1765,-0.1753,-0.1811,-0.1799,-0.1886,-0.1978,-0.1932,-0.2042,-0.2056,-0.2093,-0.2132,-0.2134,-0.2243,-0.2245,-0.2286,-0.2286,0,0,0,-0.1733,-0.175,-0.1774,-0.1797,-0.1877,-0.1978,-0.2001,-0.2046,-0.2074,-0.213,-0.2134,-0.2243,-0.2244,-0.2284,-0.2283,-0.2288,0,0,0,-0.1698,-0.1742,-0.1773,-0.184,-0.1875,-0.1992,-0.2001,-0.2095,-0.2149,-0.2132,-0.2244,-0.2245,-0.2283,-0.2281,-0.2287,-0.1976,0,0,0,-0.1728,-0.1745,-0.1785,-0.1817,-0.192,-0.1966,-0.2076,-0.2147,-0.216,-0.2199,-0.2204,-0.2287,-0.2283,-0.2288,-0.2056,0,0,0,0,-0.1778,-0.1804,-0.1843,-0.1915,-0.1998,-0.208,-0.2159,-0.219,-0.2259,-0.2199,-0.2301,-0.2297,-0.2299,-0.2114,-0.2251,-0.2251,-0.2251,-0.2251,-0.2251,-0.1762,-0.1821,-0.1889,-0.1973,-0.2053,-0.2169,-0.223,-0.2283,-0.23,-0.2338,-0.2344,-0.2391,-0.22,-0.2366,-0.2366,-0.2366,-0.2367,-0.2367,-0.2367,-0.178,-0.1805,-0.1907,-0.1996,-0.2096,-0.2193,-0.2304,-0.2337,-0.2401,-0.2401,-0.2401,-0.2187,-0.2372,-0.2371,-0.237,-0.2369,-0.2369,-0.2369,-0.2368,-0.1732,-0.1749,-0.1835,-0.1957,-0.208,-0.2206,-0.2268,-0.237,-0.2421,-0.2444,-0.2234,-0.2411,-0.2392,-0.245,-0.245,-0.245,-0.245,-0.2451,-0.2451,-0.1626,-0.171,-0.1766,-0.1914,-0.1983,-0.2096,-0.2259,-0.2278,-0.2367,-0.2235,-0.2454,-0.2418,-0.2415,-0.2396,-0.2451,-0.2451,-0.2451,-0.2451,-0.2451,-0.1525,-0.1582,-0.1638,-0.1707,-0.1844,-0.19,-0.2106,-0.2088,-0.2088,-0.2016,-0.2113,-0.213,-0.2076,-0.2082,-0.2049,-0.2003,-0.1999,-0.1995,0,-0.1427,-0.1469,-0.1503,-0.155,-0.1586,-0.1759,-0.1687,-0.1758,-0.1833,-0.1772,-0.2079,-0.2189,-0.2199,-0.2141,-0.2139,-0.21,0,0,0,-0.134,-0.1372,-0.1342,-0.142,-0.1447,-0.1495,-0.165,-0.1592,-0.1846,-0.1742,-0.1899,-0.1924,-0.2235,-0.2454,-0.2411,-0.2407,-0.2374,0,0]},{"header":{"parameterUnit":"m.s-1","parameterCategory":2,"la1":30.2992,"la2":30.254,"lo1":-89.0895,"lo2":-89.0443,"dy":0.0025,"dx":0.0025,"nx":19,"ny":19,"refTime":"2026-03-23T21:00:00:Z","depth":"4","parameterNumber":3,"parameterNumberName":"V-component_of_CURRENTS"},"data":[0,0,0,-0.0307,-0.0306,-0.0236,-0.0236,-0.0117,-0.0116,0,0,0,0,0,0,0,0,0,0,0,-0.0333,-0.0333,-0.0307,-0.0306,-0.0236,-0.0236,-0.0117,-0.0116,0,0,0,0,0,0,0,0,0,0,0,-0.0333,-0.0333,-0.0333,-0.0306,-0.0236,-0.0236,-0.0117,-0.0174,0,0,0,0,0,0,0,0,0,0,-0.0244,-0.0284,-0.0333,-0.0333,-0.0306,-0.0236,-0.0235,-0.0177,-0.017,-0.0145,0,-0.0146,0,-0.0133,-0.0109,-0.0108,0,0,0,-0.0291,-0.029,-0.0267,-0.0333,-0.0305,-0.0236,-0.0263,-0.0173,-0.0166,-0.0137,-0.0144,-0.014,-0.0131,-0.0108,-0.0107,-0.0033,-0.0033,0,0,-0.0295,-0.0319,-0.0272,-0.0263,-0.0302,-0.0266,-0.0261,-0.0169,-0.0169,-0.0144,-0.0137,-0.013,-0.0107,-0.0106,-0.0033,-0.0033,0,0,0,-0.0316,-0.0322,-0.0301,-0.0268,-0.026,-0.0264,-0.0259,-0.0173,-0.0166,-0.0136,-0.0128,-0.0107,-0.0105,-0.0033,-0.0033,-0.012,0,0,0,-0.0318,-0.0335,-0.0304,-0.0317,-0.0263,-0.0222,-0.0266,-0.0172,-0.0161,-0.0129,-0.0107,-0.0104,-0.0033,-0.0033,-0.0118,-0.0163,0,0,0,-0.0334,-0.0337,-0.0332,-0.0318,-0.0294,-0.0223,-0.021,-0.0169,-0.0157,-0.0108,-0.0104,-0.0033,-0.0033,-0.0116,-0.0159,-0.0151,0,0,0,-0.0354,-0.0373,-0.0333,-0.0352,-0.0295,-0.0273,-0.021,-0.0183,-0.0149,-0.0106,-0.0033,-0.0033,-0.0115,-0.0156,-0.0149,-0.0176,0,0,0,-0.0391,-0.0378,-0.0389,-0.0352,-0.0361,-0.028,-0.0272,-0.0199,-0.0135,-0.0059,-0.0057,-0.0119,-0.0158,-0.0151,-0.0174,0,0,0,0,-0.041,-0.0423,-0.0417,-0.0413,-0.0374,-0.0339,-0.0261,-0.0214,-0.0143,-0.0116,-0.0093,-0.0115,-0.0108,-0.0116,-0.0033,-0.0033,-0.0033,-0.0033,-0.0033,-0.0485,-0.0469,-0.0496,-0.0472,-0.0452,-0.0373,-0.0331,-0.0247,-0.0184,-0.0161,-0.0168,-0.0198,-0.021,-0.0141,-0.0141,-0.0141,-0.0142,-0.0142,-0.0142,-0.0557,-0.0577,-0.056,-0.0584,-0.0535,-0.0515,-0.0399,-0.0341,-0.0257,-0.0211,-0.0199,-0.0186,-0.015,-0.0149,-0.0147,-0.0146,-0.0146,-0.0145,-0.0145,-0.0608,-0.0619,-0.0636,-0.0671,-0.0673,-0.0606,-0.0578,-0.0472,-0.0346,-0.0332,-0.0296,-0.0239,-0.0251,-0.0316,-0.0316,-0.0316,-0.0316,-0.0316,-0.0316,-0.0653,-0.067,-0.0732,-0.076,-0.0791,-0.0784,-0.0678,-0.0608,-0.0475,-0.0392,-0.0351,-0.0255,-0.025,-0.0258,-0.0319,-0.0319,-0.0318,-0.0318,-0.0318,-0.071,-0.0725,-0.0818,-0.0867,-0.0928,-0.0915,-0.0832,-0.0664,-0.0586,-0.0494,-0.0398,-0.0394,-0.0356,-0.0347,-0.0358,-0.0451,-0.0451,-0.0452,0,-0.0748,-0.0762,-0.0888,-0.0973,-0.1023,-0.0982,-0.0886,-0.0778,-0.0601,-0.0592,-0.0589,-0.049,-0.0483,-0.0448,-0.044,-0.0459,0,0,0,-0.0785,-0.0822,-0.0912,-0.0998,-0.1058,-0.0936,-0.0854,-0.0788,-0.0632,-0.0552,-0.0467,-0.0463,-0.0441,-0.0327,-0.0257,-0.025,-0.0259,0,0]}]]